Regional Weather Roundup
Issued by NWS

Home | Current Version | Previous Version | Text Only | Print | Product List | Glossary Off
Versions: 1 2 3 4 5 6 7 8 9 10 11 12 13 14 15 16 17 18 19 20 21 22 23 24 25 26 27 28 29 30 31 32 33 34 35 36 37 38 39 40 41 42 43 44 45 46 47 48 49 50

881
ASUS43 KLOT 222303
RWRIL

ILLINOIS REGIONAL WEATHER ROUNDUP
NATIONAL WEATHER SERVICE CHICAGO/ROMEOVILLE IL
600 PM CDT SUN APR 22 2018

NOTE: "FAIR" INDICATES FEW OR NO CLOUDS BELOW 12,000 FEET WITH NO
SIGNIFICANT WEATHER AND/OR OBSTRUCTIONS TO VISIBILITY.

* THESE STATIONS ARE NOT UNDER NWS QUALITY CONTROL. THEY ALSO MAY NOT
  REPORT WEATHER SUCH AS PRECIPITATION OR FOG.

ILZ001-002-007-009-015-016-024-230000-
NORTHWEST ILLINOIS

CITY           SKY/WX    TMP DP  RH WIND       PRES   REMARKS
MOLINE         FAIR      67  31  26 E14       30.17F
STERLING*      FAIR      62  28  27 E18       30.21S
SAVANNA*       FAIR      64  30  28 E13G20    30.21F
$$

ILZ003-004-008-010-011-017-018-230000-
NORTH CENTRAL ILLINOIS

CITY           SKY/WX    TMP DP  RH WIND       PRES   REMARKS
ROCKFORD       PTSUNNY   60  21  22 E10       30.25S
FREEPORT*      FAIR      61  28  28 E14G22    30.25S
ROCHELLE*      FAIR      61  25  25 E14       30.24S
DE KALB*       FAIR      60  27  28 E14G20    30.25S
PERU*          FAIR      65  30  27 E16       30.20S
$$

ILZ005-006-012>014-019>023-230000-
NORTHEAST ILLINOIS

CITY           SKY/WX    TMP DP  RH WIND       PRES   REMARKS
CHICAGO-OHARE  PTSUNNY   57  25  29 NE14      30.25S
CHICAGO-MIDWAY PTSUNNY   58  26  29 NE15      30.25S
AURORA         FAIR      61  25  25 NE17      30.24S
LANSING*       FAIR      53  33  45 NE14      30.24S
JOLIET*        FAIR      62  27  27 NE14G20   30.22F
WAUKEGAN       FAIR      54  26  34 NE9       30.26F
DUPAGE AIRPORT FAIR      58  26  29 NE14      30.24S
KANKAKEE*      FAIR      64  29  26 E13       30.20S
WHEELING       FAIR      57  24  28 NE10      30.28S
MORRIS*        FAIR      62  28  27 NE10G18   30.20F
ROMEOVILLE*    FAIR      61  28  28 E14       30.23S
NORTHERLY ISL    N/A     47  30  52 MISG        N/A
$$

LMZ740>746-230000-
SOUTHERN LAKE MICHIGAN

STATION/POSITION SKY/WX   TEMP    WIND        PRES    VSBY  WAVE
                          AIR SEA DIR/SP/G                  HT/PER
                          (F)     (DEG/KT/KT) (MB)    (MI)  (FT/S)
HARRISON CRIB              42     360/ 13/ 14   N/A
BURNHAM HARBOR             47     340/ 13/ 15   N/A
CALUMET HARBOR             45     340/ 10/ 13 1023.8F
BURNS HARBOR               46      60/ 11/ 13 1024.7F
MICHIGAN CITY              43      30/ 11/ 12   N/A
$$

ILZ025>027-034>036-040-047-049-050-058-095>099-230000-
WEST-CENTRAL ILLINOIS

CITY           SKY/WX    TMP DP  RH WIND       PRES   REMARKS
QUINCY         CLOUDY    64  28  25 NE12      30.10S
GALESBURG*     CLOUDY    66  27  23 E10       30.18S
MACOMB*        CLOUDY    63  23  22 E14       30.16F
JACKSONVILLE*  CLOUDY    67  30  25 E21G28    30.09S
PITTSFIELD*    CLOUDY    68  32  26 E10G16    30.10R
$$

ILZ028>032-037-038-041>044-048-051>054-059>061-230000-
CENTRAL ILLINOIS

CITY           SKY/WX    TMP DP  RH WIND       PRES   REMARKS
PONTIAC        FAIR      66  27  23 E17       30.18S
BLOOMINGTON    PTSUNNY   64  27  24 E21       30.16S
DECATUR        FAIR      64  30  27 E20       30.10S
PEORIA         FAIR      65  26  23 E20G26    30.15S
LACON*         FAIR      66  25  21 E14G25    30.17S
LINCOLN*       PTSUNNY   67  28  23 E17       30.13S
SPRINGFIELD    PTSUNNY   68  31  25 E20G25    30.10S
TAYLORVILLE    FAIR      66  32  28 E13G22    30.09R
$$

ILZ033-039-045-046-055>057-062-063-230000-
EAST-CENTRAL ILLINOIS

CITY           SKY/WX    TMP DP  RH WIND       PRES   REMARKS
CHAMPAIGN      FAIR      66  25  21 E17       30.13S
DANVILLE*      FAIR      65  32  29 E13G23    30.14R
RANTOUL*       FAIR      66  31  27 E16       30.15S
MATTOON        FAIR      67  35  30 E16G24    30.09S
PARIS*         FAIR      66  31  27 E18       30.14R
$$

ILZ079-100>102-230000-
SOUTHWEST ILLINOIS

CITY           SKY/WX    TMP DP  RH WIND       PRES   REMARKS
ALTON          DRIZZLE   59  46  63 NE12      30.06S
BELLEVILLE     DRIZZLE   59  50  71 NE6       30.03S
CAHOKIA*       LGT RAIN  57  49  74 N6        30.04F
SPARTA*        DRIZZLE   55  55 100 NE5       30.03F
$$

ILZ064>066-069>071-074>076-080>082-084>086-088>090-092>094-230000-
SOUTH-CENTRAL ILLINOIS

CITY           SKY/WX    TMP DP  RH WIND       PRES   REMARKS
CARBONDALE     LGT RAIN  58  56  93 E10       29.99F
CAIRO*         LGT RAIN  58  57  97 E13       29.95F
EFFINGHAM*     CLOUDY    67  40  36 NE13G20   30.09S
MARION         LGT RAIN  57  57 100 E12       30.01F
MT. VERNON     LGT RAIN  60  56  86 NE8       30.04F
CENTRALIA*     LGT RAIN  62  51  69 E7        30.04S
SALEM*         LGT RAIN  64  47  54 E5        30.05S
METROPOLIS*    LGT RAIN  59  58  94 E8        29.98F
$$

ILZ067-068-072-073-078-083-087-091-230000-
SOUTHEAST ILLINOIS

CITY           SKY/WX    TMP DP  RH WIND       PRES   REMARKS
LAWRENCEVILLE  LGT RAIN  64  47  53 E15       30.09R
FLORA*         CLOUDY    69  46  43 E13G18    30.05F
FAIRFIELD*     RAIN      60  55  83 E5        30.05R
HARRISBURG*    RAIN      59  58  97 E16       30.03F
ROBINSON*      CLOUDY    66  37  34 E15       30.11R
CARMI*         RAIN      59  55  84 E12       30.05S
$$

ABBREVIATIONS USED IN REMARKS
   TC - TEMPERATURE IN CELSIUS
  WCI - WIND CHILL INDEX
   HX - HEAT INDEX
  VSB - VISIBILITY
$$





USA.gov is the U.S. government's official web portal to all federal, state and local government web resources and services.